Colima, Mexico

1:21 AM CST on December 12, 2017 (GMT -0600)
Colima

Weather History for MMIA - November, 2012

Change the Weather History Date:

Wednesday, November 14, 2012

  Actual Average Record
Temperature  
Mean Temperature 81 °F -  
Max Temperature 94 °F 83 °F 99 °F (2017)
Min Temperature 68 °F 66 °F 62 °F (2008)
Cooling Degree Days 16    
Growing Degree Days 31 (Base 50)    
Moisture  
Dew Point 67 °F    
Average Humidity 70    
Maximum Humidity 100    
Minimum Humidity 28    
Precipitation  
Precipitation 0.00 in - - ()
Sea Level Pressure  
Sea Level Pressure 30.05 in    
Wind  
Wind Speed 3 mph ()    
Max Wind Speed 14 mph    
Max Gust Speed -    
Visibility 5.1 miles    
Events      
Averages and records for this station are not official NWS values.
T = Trace of Precipitation, MM = Missing Value Source: Averaged Metar Reports

Daily Weather History Graph

Daily Weather History Graph

Search for Another Location

Airport or City:

Trip Planner

Search our weather history database for the weather conditions in past years. The results will help you decide how hot, cold, wet, or windy it might be!

Date:

Astronomy

Nov. 14, 2012 Rise Set
Actual Time 7:01 AM CST 6:15 PM CST
Civil Twilight 6:38 AM CST 6:38 PM CST
Nautical Twilight 6:12 AM CST 7:05 PM CST
Astronomical Twilight 5:45 AM CST 7:31 PM CST
Moon 7:46 AM CST (11/14) 7:14 PM CST (11/14)
Length of Visible Light 12h 00m
Length of Day
11h 13m
New Moon, 1% of the Moon is Illuminated
Nov 14
New Moon
Nov 20
First Quarter
Nov 28
Full
Dec 6
Last Quarter
Dec 13
New

Hourly Weather History & Observations

Time (CST) Temp. Heat Index Dew Point Humidity Pressure Visibility Wind Dir Wind Speed Gust Speed Precip Events Conditions
6:00 AM 69.8 °F - 62.6 °F 78% 30.05 in 8.0 mi Calm Calm - N/A   Clear
6:40 AM 73.4 °F - 62.6 °F 69% 30.06 in 8.0 mi Calm Calm - N/A   Clear
8:45 AM 77.0 °F - 62.6 °F 61% 30.10 in 8.0 mi Calm Calm - N/A   Scattered Clouds
8:48 AM 75 °F - 62 °F 54% 30.04 in 5 mi East 4.5 mph - -   Haze
9:43 AM 78.8 °F - 62.6 °F 57% 30.12 in 8.0 mi Calm Calm - N/A   Scattered Clouds
10:40 AM 82.4 °F 83.4 °F 62.6 °F 51% 30.13 in 8.0 mi Calm Calm - N/A   Scattered Clouds
11:45 AM 82.4 °F 83.4 °F 62.6 °F 51% 30.09 in 8.0 mi Calm Calm - N/A   Scattered Clouds
11:48 AM 90 °F - 61 °F 28% 30.02 in 6 mi SE 4.5 mph - -   Haze
12:56 PM 84.2 °F 85.0 °F 62.6 °F 48% 30.06 in 8.0 mi Calm Calm - N/A   Scattered Clouds
1:40 PM 86.0 °F 86.6 °F 62.6 °F 45% 30.03 in 8.0 mi Calm Calm - N/A   Mostly Cloudy
2:47 PM 86.0 °F 85.4 °F 59.0 °F 40% 30.02 in 8.0 mi WSW 5.8 mph - N/A   Mostly Cloudy
2:50 PM 90 °F - 70 °F 42% 29.92 in 6 mi SW 6.7 mph - -   Haze
3:46 PM 82.4 °F 85.4 °F 68.0 °F 62% 30.01 in 6.0 mi WSW 11.5 mph - N/A   Mostly Cloudy
4:42 PM 80.6 °F 83.9 °F 69.8 °F 70% 30.01 in 5.0 mi WSW 13.8 mph - N/A   Mostly Cloudy
5:41 PM 77.0 °F - 69.8 °F 78% 30.03 in 5.0 mi WSW 11.5 mph - N/A   Scattered Clouds
5:47 PM 82 °F - 74 °F 69% 29.93 in 5 mi South 6.7 mph - -   Haze
6:42 PM 73.4 °F - 69.8 °F 88% 30.05 in 4.0 mi West 10.4 mph - N/A   Scattered Clouds
7:41 PM 73.4 °F - 71.6 °F 94% 30.07 in 3.0 mi West 9.2 mph - N/A   Haze
8:35 PM 73.4 °F - 71.6 °F 94% 30.09 in 1.5 mi WSW 4.6 mph - N/A   Mostly Cloudy
8:44 PM 78 °F - 73 °F 80% 29.98 in 2 mi South 4.5 mph - -   Haze
8:44 PM 73.4 °F - 71.6 °F 94% 30.09 in 1.5 mi Calm Calm - N/A   Mostly Cloudy
9:21 PM 71.6 °F - 71.6 °F 100% 30.09 in 1.0 mi Calm Calm - N/A   Mist
9:26 PM 71.6 °F - 71.6 °F 100% 30.09 in 1.0 mi Calm Calm - N/A   Mist
9:50 PM 71.6 °F - 71.6 °F 100% 30.09 in 1.5 mi Calm Calm - N/A   Mist
11:48 PM 75 °F - 73 °F 90% 30.00 in 1 mi NE 2.2 mph - -   Haze